Westhampton Beach, NY

7:54 PM EST on December 16, 2017 (GMT -0500)
The Gabreski

Weather History for KFOK - December, 2013

Change the Weather History Date:

Sunday, December 8, 2013

  Actual Average Record
Temperature  
Mean Temperature 26 °F -  
Max Temperature 34 °F 45 °F 60 °F (2004)
Min Temperature 19 °F 27 °F 10 °F (2008)
Degree Days  
Heating Degree Days 38    
Moisture  
Dew Point 22 °F    
Average Humidity 72    
Maximum Humidity 87    
Minimum Humidity 54    
Precipitation  
Precipitation 0.02 in - - ()
Sea Level Pressure  
Sea Level Pressure 30.52 in    
Wind  
Wind Speed 5 mph (NE)    
Max Wind Speed 12 mph    
Max Gust Speed 17 mph    
Visibility 7 miles    
Events Rain , Snow    
Averages and records for this station are not official NWS values.
T = Trace of Precipitation, MM = Missing Value Source: NWS Daily Summary

Daily Weather History Graph

Daily Weather History Graph

Search for Another Location

Airport or City:

Trip Planner

Search our weather history database for the weather conditions in past years. The results will help you decide how hot, cold, wet, or windy it might be!

Date:

Astronomy

Dec. 08, 2013 Rise Set
Actual Time 7:02 AM EST 4:22 PM EST
Civil Twilight 6:31 AM EST 4:53 PM EST
Nautical Twilight 5:57 AM EST 5:27 PM EST
Astronomical Twilight 5:24 AM EST 6:00 PM EST
Moon 11:19 AM EST (12/8) 11:10 PM EST (12/8)
Length of Visible Light 10h 21m
Length of Day
9h 20m
Waxing Crescent, 40% of the Moon is Illuminated
Dec 8
Waxing Crescent
Dec 9
First Quarter
Dec 17
Full
Dec 25
Last Quarter
Jan 1
New

Hourly Weather History & Observations

Time (EST) Temp. Windchill Dew Point Humidity Pressure Visibility Wind Dir Wind Speed Gust Speed Precip Events Conditions
12:53 AM 30.9 °F 24.3 °F 17.1 °F 57% 30.50 in 10.0 mi North 6.9 mph - N/A   Clear
1:53 AM 28.9 °F 23.9 °F 17.1 °F 61% 30.51 in 10.0 mi NNW 4.6 mph - N/A   Clear
2:53 AM 26.1 °F 20.5 °F 15.1 °F 63% 30.52 in 10.0 mi NW 4.6 mph - N/A   Clear
3:53 AM 26.1 °F 20.5 °F 16.0 °F 66% 30.54 in 10.0 mi North 4.6 mph - N/A   Clear
4:53 AM 21.0 °F 13.4 °F 12.9 °F 71% 30.55 in 10.0 mi NNW 5.8 mph - N/A   Clear
5:53 AM 24.1 °F 18.2 °F 16.0 °F 71% 30.57 in 10.0 mi NNW 4.6 mph - N/A   Clear
6:53 AM 19.0 °F 12.3 °F 12.0 °F 74% 30.57 in 10.0 mi North 4.6 mph - N/A   Clear
7:53 AM 24.1 °F - 18.0 °F 77% 30.58 in 10.0 mi Calm Calm - N/A   Clear
8:53 AM 32.0 °F 26.4 °F 21.9 °F 66% 30.60 in 10.0 mi NNE 5.8 mph - N/A   Clear
9:53 AM 33.1 °F 25.5 °F 21.0 °F 61% 30.60 in 10.0 mi NNE 9.2 mph - N/A   Clear
10:53 AM 33.1 °F 26.9 °F 19.9 °F 59% 30.59 in 10.0 mi NE 6.9 mph - N/A   Scattered Clouds
11:53 AM 34.0 °F 28.0 °F 19.0 °F 54% 30.57 in 10.0 mi NE 6.9 mph - N/A   Overcast
12:53 PM 33.1 °F 27.7 °F 19.0 °F 56% 30.53 in 10.0 mi NE 5.8 mph - N/A   Overcast
1:53 PM 34.0 °F 28.0 °F 19.9 °F 56% 30.54 in 10.0 mi NNE 6.9 mph - N/A   Overcast
2:53 PM 34.0 °F - 21.0 °F 59% 30.54 in 10.0 mi Calm Calm - N/A   Overcast
3:53 PM 33.1 °F - 19.9 °F 59% 30.53 in 10.0 mi Calm Calm - N/A   Overcast
4:53 PM 33.1 °F - 21.0 °F 61% 30.56 in 5.0 mi Calm Calm - 0.00 in Snow Light Snow
5:25 PM 32.0 °F 27.5 °F 21.2 °F 64% 30.55 in 2.5 mi NE 4.6 mph - 0.00 in Snow Light Snow
5:42 PM 30.2 °F 26.7 °F 21.2 °F 69% 30.53 in 2.5 mi NE 3.5 mph - 0.00 in Snow Light Snow
5:53 PM 30.9 °F 27.5 °F 21.9 °F 69% 30.53 in 3.0 mi ENE 3.5 mph - 0.00 in Snow Light Snow
6:04 PM 30.2 °F 26.7 °F 23.0 °F 75% 30.54 in 2.5 mi NE 3.5 mph - 0.00 in Snow Light Snow
6:24 PM 30.2 °F 25.4 °F 23.0 °F 75% 30.55 in 4.0 mi NE 4.6 mph - 0.00 in Snow Light Snow
6:42 PM 30.2 °F 26.7 °F 24.8 °F 80% 30.53 in 2.5 mi ENE 3.5 mph - 0.00 in Snow Light Snow
6:48 PM 30.2 °F 26.7 °F 24.8 °F 80% 30.54 in 2.5 mi ENE 3.5 mph - 0.00 in Snow Light Snow
6:53 PM 30.9 °F 27.5 °F 24.1 °F 76% 30.54 in 2.5 mi ENE 3.5 mph - 0.00 in Snow Light Snow
7:15 PM 30.2 °F 26.7 °F 24.8 °F 80% 30.54 in 1.8 mi NE 3.5 mph - 0.01 in Snow Light Snow
7:24 PM 30.2 °F 26.7 °F 24.8 °F 80% 30.53 in 3.0 mi NE 3.5 mph - 0.01 in Snow Light Snow
7:38 PM 30.2 °F 24.3 °F 24.8 °F 80% 30.52 in 7.0 mi NE 5.8 mph - 0.01 in Snow Light Snow
7:53 PM 30.9 °F 25.2 °F 26.1 °F 82% 30.52 in 7.0 mi NE 5.8 mph - 0.01 in Snow Light Snow
8:53 PM 32.0 °F 25.6 °F 26.1 °F 79% 30.50 in 9.0 mi ENE 6.9 mph - 0.00 in   Overcast
9:53 PM 32.0 °F 25.6 °F 26.1 °F 79% 30.45 in 10.0 mi ENE 6.9 mph - 0.00 in   Overcast
10:23 PM 32.0 °F 24.8 °F 26.6 °F 80% 30.42 in 7.0 mi NE 8.1 mph - N/A   Overcast
10:50 PM 32.0 °F 23.6 °F 26.6 °F 80% 30.41 in 5.0 mi ENE 10.4 mph - 0.00 in Rain Light Freezing Rain
10:51 PM 32.0 °F 23.6 °F 27.0 °F 82% 30.41 in 5.0 mi ENE 10.4 mph 17.3 mph 0.00 in Rain Light Freezing Rain
11:05 PM 32.0 °F 24.8 °F 28.4 °F 87% 30.42 in 2.5 mi ENE 8.1 mph - 0.00 in Rain Light Freezing Rain
11:15 PM 32.0 °F 24.2 °F 28.4 °F 87% 30.42 in 3.0 mi NE 9.2 mph - 0.01 in Rain Light Freezing Rain
11:51 PM 33.8 °F 25.3 °F 28.4 °F 81% 30.41 in 2.5 mi NE 11.5 mph - 0.01 in Rain Light Freezing Rain
11:53 PM 33.1 °F 24.4 °F 28.9 °F 85% 30.41 in 2.5 mi NE 11.5 mph - 0.01 in Rain Light Freezing Rain